[[{"header":{"parameterUnit":"m.s-1","parameterCategory":1,"la1":30.2991,"la2":30.254,"lo1":-89.0895,"lo2":-89.0444,"dy":0.0017,"dx":0.0017,"nx":28,"ny":28,"refTime":"2024-06-26T03:00:00:Z","depth":0,"parameterNumber":2,"parameterNumberName":"U-component_of_WINDS"},"data":[0,0,0,0,0,0,0,0,0,0,0,0,0,0,0,0,0,0,0,0,0,0,0,0,0,0,0,0,0,0,0,0,0,0,0,0,0,0,0,0,0,0,0,0,0,0,0,0,0,0,0,0,0,0,0,0,0,0,6.1396,6.1397,0,6.1564,6.1566,6.1568,6.1459,6.1454,6.1449,6.1444,6.1623,6.1632,6.1642,0,0,0,0,0,0,0,0,0,0,0,0,0,6.0985,6.0993,6.1395,6.1398,6.14,6.1563,6.1566,6.1568,6.146,6.1454,6.1448,6.1442,6.162,6.1631,6.1642,0,0,0,0,0,0,0,0,0,0,0,0,0,6.1159,6.0995,6.1395,6.1365,6.1364,6.1563,6.1566,6.1569,6.1461,6.1454,6.1446,6.1439,6.1616,6.163,6.1644,6.1884,0,0,6.1687,6.1694,0,0,0,0,0,0,0,0,6.1149,6.1174,6.1368,6.1368,6.1367,6.1482,6.1486,6.1675,6.1463,6.1425,6.1444,6.1435,6.1583,6.1599,6.1648,6.1892,6.19,6.1689,6.1697,6.1703,6.1707,0,0,0,0,0,0,0,6.1138,6.1167,6.1462,6.1371,6.137,6.1345,6.1361,6.1522,6.1545,6.1427,6.142,6.1441,6.1581,6.1634,6.1651,6.1902,6.1688,6.1701,6.171,6.1715,6.2347,6.2355,0,0,0,0,0,0,6.1127,6.1157,6.1457,6.1467,6.1237,6.1358,6.1377,6.1453,6.1542,6.1548,6.1447,6.1435,6.1614,6.1635,6.1657,6.194,6.1703,6.1717,6.1725,6.2339,6.2349,6.2358,0,0,0,0,0,0,6.1119,6.1155,6.145,6.131,6.1346,6.1373,6.146,6.1461,6.1513,6.1557,6.1561,6.1497,6.1609,6.1637,6.1827,6.1945,6.1723,6.1736,6.233,6.2342,6.2354,6.251,0,0,0,0,0,0,6.1107,6.1153,6.1243,6.1313,6.1354,6.1616,6.1468,6.1469,6.1537,6.1523,6.1605,6.1611,6.1605,6.1806,6.1841,6.196,6.1747,6.2319,6.2335,6.235,6.2494,6.2526,6.2553,0,0,0,0,0,6.1093,6.1283,6.1248,6.1285,6.1467,6.1623,6.1647,6.1633,6.1547,6.1639,6.1666,6.1609,6.1927,6.1826,6.1865,6.199,6.2311,6.2331,6.2349,6.2481,6.252,6.2553,0,0,0,0,0,0,6.1229,6.1291,6.1254,6.1471,6.1542,6.1604,6.1719,6.1676,6.1774,6.1757,6.1739,6.1758,6.1956,6.1992,6.1879,6.2225,6.2106,6.2133,6.2193,6.223,6.2259,6.2245,6.1759,0,0,0,0,0,6.1283,6.1403,6.1452,6.164,6.1677,6.1692,6.176,6.1743,6.1817,6.1847,6.1889,6.1965,6.2081,6.2158,6.2268,6.25,6.2515,6.2605,6.2634,6.2658,6.2681,6.2803,6.2843,6.2419,6.2419,6.2419,0,0,6.1399,6.1448,6.1525,6.1668,6.1721,6.1846,6.1719,6.1857,6.195,6.1869,6.2049,6.2083,6.2165,6.2376,6.2471,6.2413,6.2802,6.2682,6.2701,6.2711,6.2827,6.2867,6.2902,6.2432,6.243,6.2428,0,0,6.1671,6.1722,6.1881,6.1936,6.2017,6.2025,6.2064,6.2132,6.215,6.233,6.2271,6.2382,6.2584,6.2644,6.2701,6.2995,6.2944,6.3031,6.3185,6.3304,6.3337,6.3367,6.3468,6.3505,6.3055,6.3055,6.3055,0,6.1805,6.1989,6.1969,6.2111,6.2175,6.2105,6.2266,6.2321,6.2435,6.2481,6.2414,6.2663,6.2714,6.2936,6.3007,6.3057,6.3099,6.3021,6.3334,6.3363,6.339,6.3487,6.3526,6.3065,6.3064,6.3063,6.3062,0,6.2147,6.2276,6.2396,6.2503,6.2581,6.2732,6.2736,6.2817,6.2794,6.281,6.2993,6.3051,6.317,6.3222,6.3203,6.3441,6.3402,6.3335,6.3214,6.3441,6.3531,6.3568,6.3079,6.3075,6.3073,6.307,0,0,6.251,6.2603,6.2647,6.2693,6.2776,6.2876,6.3024,6.3137,6.3206,6.3287,6.3409,6.3581,6.3518,6.3583,6.3569,6.3674,6.3898,6.3594,6.3595,6.3646,6.4162,6.4209,6.4252,6.3866,6.3873,6.3879,6.4153,0,6.2785,6.3039,6.3025,6.3264,6.3381,6.3316,6.3444,6.351,6.3529,6.3632,6.3654,6.3773,6.3684,6.3722,6.3823,6.385,6.4001,6.383,6.3979,6.3985,6.3957,6.43,6.4352,6.4608,6.4189,6.4195,6.42,0,6.3139,6.3228,6.3478,6.354,6.3589,6.3704,6.3805,6.3905,6.3978,6.3984,6.4055,6.4024,6.4173,6.405,6.4255,6.4139,6.4199,6.4222,6.4231,6.4243,6.4104,6.4318,6.469,6.4727,6.4256,6.4251,6.4247,0,6.3374,6.3557,6.3729,6.3772,6.385,6.3932,6.3969,6.4033,6.4101,6.4191,6.4234,6.4342,6.44,6.4484,6.4482,6.4393,6.4689,6.4566,6.4697,6.4697,6.476,6.4756,6.5144,6.4805,6.4804,6.4803,6.4803,0,6.3681,6.3836,6.3835,6.3941,6.4112,6.4095,6.4265,6.4293,6.4351,6.4461,6.4414,6.4518,6.4511,6.4617,6.4617,6.4785,6.4813,6.4821,6.4819,6.4824,6.4822,6.4861,6.4842,6.4814,6.4811,6.4809,6.4808,0,6.3971,6.3978,6.416,6.4218,6.4236,6.4359,6.4409,6.451,6.4523,6.4663,6.4695,6.4718,6.484,6.4847,6.499,6.4989,6.5192,6.5172,6.5166,6.5162,6.5291,6.5277,6.5715,6.577,6.5398,6.5402,6.5405,0,6.4165,6.4282,6.4351,6.442,6.446,6.4573,6.4641,6.4629,6.4702,6.4792,6.4881,6.4998,6.5091,6.5289,6.5319,6.5427,6.5407,6.5553,6.5423,6.5423,6.5405,6.5397,6.5407,6.5578,6.5582,6.5585,6.5588,0,6.4507,6.4503,6.4602,6.4702,6.4783,6.4862,6.4935,6.4995,6.4991,6.5076,6.5199,6.5271,6.5413,6.553,6.5634,6.5673,6.563,6.5629,6.5664,6.5669,6.5659,6.5663,6.5232,6.5618,6.5615,6.5613,6.5611,6.561,6.4752,6.4852,6.4914,6.5026,6.5079,6.5147,6.5243,6.5267,6.5369,6.5482,6.547,6.5605,6.5673,6.5809,6.5856,6.5962,6.5912,6.5965,6.5977,6.599,6.6001,6.5645,6.5982,6.5981,6.598,6.598,6.5979,0,6.5088,6.5125,6.5227,6.5329,6.5416,6.5366,6.5444,6.552,6.5639,6.5705,6.5796,6.5936,6.6048,6.6086,6.6195,6.6273,6.6256,6.6302,6.6294,6.6303,6.6042,6.5998,6.6313,6.6313,6.6313,6.6313,6.6313,6.6313,6.5273,6.5437,6.5441,6.5631,6.5667,6.5797,6.5845,6.5908,6.596,6.6117,6.6209,6.6232,6.6287,6.6398,6.6499,6.6507,6.6548,6.6602,6.6602,6.6356,6.6322,6.629,6.6249,6.6612,6.6612,6.6854,6.6856,6.6858]},{"header":{"parameterUnit":"m.s-1","parameterCategory":1,"la1":30.2991,"la2":30.254,"lo1":-89.0895,"lo2":-89.0444,"dy":0.0017,"dx":0.0017,"nx":28,"ny":28,"refTime":"2024-06-26T03:00:00:Z","depth":0,"parameterNumber":3,"parameterNumberName":"V-component_of_WINDS"},"data":[0,0,0,0,0,0,0,0,0,0,0,0,0,0,0,0,0,0,0,0,0,0,0,0,0,0,0,0,0,0,0,0,0,0,0,0,0,0,0,0,0,0,0,0,0,0,0,0,0,0,0,0,0,0,0,0,0,0,3.3942,3.3944,0,3.406,3.4061,3.4062,3.4054,3.4052,3.405,3.4048,3.4165,3.417,3.4175,0,0,0,0,0,0,0,0,0,0,0,0,0,3.3706,3.371,3.3942,3.3944,3.3945,3.406,3.4061,3.4063,3.4054,3.4052,3.405,3.4048,3.4164,3.4169,3.4175,0,0,0,0,0,0,0,0,0,0,0,0,0,3.3814,3.3712,3.3942,3.3955,3.3957,3.4059,3.4061,3.4063,3.4054,3.4052,3.4049,3.4047,3.4162,3.4169,3.4176,3.4272,0,0,3.4198,3.4201,0,0,0,0,0,0,0,0,3.3808,3.3823,3.3951,3.3954,3.3957,3.4039,3.4021,3.4133,3.4055,3.4017,3.4048,3.4045,3.4125,3.4135,3.4163,3.4278,3.4283,3.4198,3.4203,3.4206,3.4208,0,0,0,0,0,0,0,3.3801,3.3818,3.3989,3.3953,3.3956,3.3953,3.3965,3.4042,3.4084,3.402,3.402,3.4034,3.4126,3.4156,3.4166,3.4284,3.4198,3.4204,3.4209,3.4212,3.4482,3.4485,0,0,0,0,0,0,3.3791,3.3812,3.3985,3.3992,3.3874,3.3959,3.3973,3.4015,3.4084,3.4092,3.4036,3.4033,3.4145,3.4157,3.417,3.4286,3.4206,3.4212,3.4216,3.4479,3.4483,3.4486,0,0,0,0,0,0,3.3786,3.3806,3.398,3.3902,3.3924,3.3966,3.4013,3.4019,3.4049,3.4096,3.4103,3.4059,3.4144,3.416,3.4247,3.429,3.4215,3.4222,3.4476,3.448,3.4484,3.4519,0,0,0,0,0,0,3.3779,3.3805,3.3843,3.3903,3.3928,3.4056,3.4016,3.4023,3.4062,3.4059,3.4119,3.4127,3.4143,3.4236,3.4254,3.4298,3.4227,3.4472,3.4478,3.4483,3.4514,3.4524,3.4533,0,0,0,0,0,3.3771,3.3848,3.3845,3.3866,3.3977,3.4059,3.4073,3.4091,3.4065,3.4103,3.4133,3.4125,3.4282,3.4245,3.4265,3.4312,3.4469,3.4476,3.4482,3.451,3.4522,3.4533,0,0,0,0,0,0,3.379,3.3856,3.3853,3.3952,3.4,3.4057,3.4106,3.4104,3.4159,3.4154,3.4173,3.4187,3.4274,3.4302,3.4259,3.4408,3.4372,3.4383,3.4387,3.4398,3.4407,3.4398,3.4233,0,0,0,0,0,3.3807,3.3869,3.3922,3.4004,3.4029,3.4063,3.41,3.411,3.4159,3.4179,3.4216,3.4263,3.4323,3.4362,3.4421,3.4519,3.453,3.4561,3.457,3.4577,3.4586,3.4638,3.4651,3.4507,3.4507,3.4507,0,0,3.384,3.3883,3.3922,3.401,3.4048,3.4111,3.408,3.4148,3.4195,3.4189,3.4274,3.4302,3.4356,3.4448,3.4491,3.4474,3.4628,3.4585,3.4591,3.4596,3.4646,3.4659,3.4671,3.4512,3.4511,3.451,0,0,3.3933,3.3973,3.4045,3.4084,3.4143,3.4165,3.4182,3.424,3.4259,3.4344,3.434,3.4395,3.4499,3.4537,3.457,3.4676,3.467,3.4695,3.4742,3.4793,3.4804,3.4814,3.485,3.4863,3.4704,3.4704,3.4704,0,3.3967,3.4063,3.4082,3.4151,3.4189,3.4188,3.426,3.4296,3.437,3.4396,3.4376,3.4505,3.4542,3.4643,3.4668,3.4696,3.4715,3.4688,3.4801,3.4811,3.4821,3.4856,3.487,3.4706,3.4706,3.4706,3.4705,0,3.4101,3.4167,3.4218,3.4291,3.4334,3.4404,3.4433,3.4474,3.448,3.4504,3.4589,3.4633,3.4699,3.4724,3.473,3.4825,3.4812,3.4797,3.4761,3.4837,3.487,3.4883,3.471,3.4709,3.4708,3.4707,0,0,3.421,3.4291,3.431,3.4342,3.4406,3.4457,3.4526,3.4592,3.4626,3.4677,3.4734,3.4822,3.4807,3.4845,3.4855,3.49,3.4979,3.4878,3.488,3.4894,3.5084,3.5094,3.511,3.4976,3.4978,3.498,3.5079,0,3.4308,3.4432,3.4451,3.4559,3.4619,3.4619,3.4679,3.4724,3.4747,3.4801,3.4827,3.4888,3.4865,3.4887,3.4932,3.496,3.5017,3.4953,3.5027,3.5029,3.5012,3.5127,3.5139,3.523,3.5092,3.5094,3.5096,0,3.4439,3.4494,3.4609,3.4664,3.469,3.4744,3.4804,3.4856,3.4907,3.4921,3.4962,3.4967,3.5036,3.4998,3.5094,3.505,3.5081,3.5099,3.5103,3.511,3.5066,3.5135,3.5259,3.5272,3.5117,3.5115,3.5113,0,3.4505,3.4608,3.4689,3.4717,3.4784,3.4821,3.485,3.4898,3.4936,3.4989,3.5013,3.5073,3.5105,3.515,3.517,3.5141,3.5264,3.5228,3.5276,3.5275,3.5301,3.5299,3.543,3.5323,3.5323,3.5322,3.5322,0,3.4612,3.4682,3.472,3.477,3.4847,3.4867,3.4943,3.4971,3.5013,3.5067,3.507,3.512,3.5144,3.5198,3.5214,3.5289,3.5304,3.5316,3.5319,3.5315,3.5313,3.5335,3.5328,3.5326,3.5325,3.5325,3.5324,0,3.4698,3.4727,3.4815,3.4871,3.4887,3.4941,3.4988,3.5035,3.5059,3.5127,3.5144,3.518,3.5243,3.5268,3.5345,3.5355,3.5442,3.544,3.5425,3.5425,3.5471,3.5466,3.562,3.5641,3.5521,3.5523,3.5524,0,3.4764,3.4818,3.4879,3.4916,3.4947,3.5006,3.5045,3.5067,3.5106,3.5167,3.5207,3.527,3.5322,3.5422,3.5454,3.5512,3.5511,3.5561,3.552,3.5514,3.551,3.5506,3.5511,3.5568,3.557,3.5571,3.5572,0,3.4877,3.4888,3.4945,3.5006,3.5052,3.5101,3.5148,3.5178,3.5207,3.5251,3.5316,3.5356,3.5435,3.5496,3.5556,3.5584,3.5582,3.5584,3.5598,3.5594,3.5582,3.5588,3.5444,3.5581,3.558,3.5579,3.5578,3.5578,3.4954,3.5001,3.5052,3.5114,3.5152,3.5196,3.5243,3.5273,3.5328,3.5394,3.5403,3.5472,3.5519,3.56,3.563,3.5684,3.567,3.5691,3.5696,3.57,3.5702,3.5575,3.5695,3.5694,3.5694,3.5694,3.5694,0,3.5066,3.5098,3.5156,3.5222,3.5271,3.5266,3.5318,3.5358,3.542,3.5465,3.5515,3.5589,3.5649,3.5686,3.5745,3.5781,3.5781,3.5795,3.5792,3.5798,3.5712,3.5693,3.5794,3.5794,3.5794,3.5794,3.5794,3.5794,3.513,3.5209,3.5226,3.5323,3.5355,3.5424,3.5453,3.5493,3.5529,3.5612,3.5662,3.5686,3.5727,3.579,3.5844,3.5853,3.5874,3.5889,3.5897,3.5815,3.5805,3.5795,3.5777,3.5894,3.5894,3.5979,3.598,3.598]}]]